NOAA NWS Hourly Roundups by Site

Regional Weather Roundup for Green Bay, WI

To Select Another Site Choose from List

Select Site:  

000
ASUS43 KGRB 310611
RWRGRB

NORTH-CENTRAL AND NORTHEAST WISCONSIN REGIONAL WEATHER ROUNDUP
NATIONAL WEATHER SERVICE GREEN BAY WI
100 AM CDT SAT JUL 31 2021

WIZ005-009-010>012-018-019-310700-
NORTH CENTRAL WISCONSIN

CITY           SKY/WX    TMP DP  RH WIND       PRES   REMARKS
IRONWOOD       PTCLDY    65  58  78 SW9       30.01F
MANITOWISH WTR PTCLDY    61  61 100 SW5       30.04F
ARBOR VITAE    CLEAR     62  48  60 SW3       30.05F
EAGLE RIVER    CLEAR     59  59  99 SW6       30.05F
LAND O LAKES     N/A     62  58  87 CALM      30.06F
RHINELANDER    CLEAR     63  59  87 SW8       30.07F
PHILLIPS       CLEAR     62  62 100 SW5       30.05F
ANTIGO         CLEAR     58  58  98 SW3       30.08S
TOMAHAWK       CLEAR     59  57  94 CALM      30.07F
MERRILL        CLEAR     60  60  99 CALM      30.06F
$$

WIZ013-073-310700-
NORTHEAST WISCONSIN

CITY           SKY/WX    TMP DP  RH WIND       PRES   REMARKS
IRON MOUNTAIN  PTCLDY    60  55  83 CALM      30.01F
MARINETTE      MOCLDY    63  58  83 SW5       30.04F
OCONTO         PTCLDY    58  56  94 SW5       30.04F
$$

WIZ017-030-035>037-045-310700-
CENTRAL WISCONSIN

CITY           SKY/WX    TMP DP  RH WIND       PRES   REMARKS
MEDFORD        CLEAR     60  60 100 SW3       30.08S
WAUSAU         CLEAR     65  59  81 SW6       30.06F
MOSINEE        CLEAR     59  55  88 SW5       30.08F
MARSHFIELD     PTCLDY    61  59  93 SW5       30.08F FOG
WISC RAPIDS    CLEAR     62  60  93 SW6       30.08F
STEVENS POINT  CLEAR     58  57  98 CALM      30.09S
WAUPACA        CLEAR     59  57  93 CALM      30.08F
SHAWANO        PTCLDY    64  60  87 SW3       30.06F
CLINTONVILLE   PTCLDY    61  57  87 CALM      30.06F
WAUTOMA        CLEAR     57  56  96 CALM      30.09F
$$

WIZ038-039-048-051-310700-
FOX VALLEY

CITY           SKY/WX    TMP DP  RH WIND       PRES   REMARKS
NWS GREEN BAY  CLEAR     59  55  87 SW3       30.06F
APPLETON       CLEAR     59  54  82 SW6       30.06F
OSHKOSH        CLEAR     60  57  89 S7        30.07F
FOND DU LAC    CLEAR     61  53  75 SW5       30.09F
$$

WIZ022-050-052-310700-
EAST CENTRAL WISCONSIN

CITY           SKY/WX    TMP DP  RH WIND       PRES   REMARKS
EPHRAIM        FAIR      58  52  80 CALM      30.03F
WASHINGTON ISL FAIR      62  56  79 SW9       30.03F
STURGEON BAY   PTCLDY    59  53  80 SW8         N/A
MANITOWOC      CLEAR     59  53  80 SW3       30.08F
SHEBOYGAN      CLEAR     56  52  86 SW6       30.08F
$$

LMZ563-521-522-541>543-310700-
LAKESHORE

STATION/POSITION TIME  TEMP    WIND        PRES    VSBY  WAVE
                       AIR SEA DIR/SP/G                  HT/PER
                 (UTC) (F)     (DEG/KT/KT) (MB)    (MI)  (FT/S)
SHEBOYGAN LKSHOR 0600   61     220/  9/ 10   N/A
KEWAUNEE LKSHORE 0530   60     210/  5/  7 1016.8F
NORTHPORT PIER   0540   63     160/  4/ 12 1017.9R
N MID LAKE BUOY  0550   65     200/ 14/ 16 1017.4F         2/ 3
S GREEN BAY BUOY 0530   74 73  210/ 16/ 19 1016.8F         2/ 3
SISTER BAY LKSHO 0602   63     190/  9/ 11   N/A
CHAMBERS ISLAND  0540   65     150/  5/ 12   N/A
MENOMINEE LKSHOR 0530   66 75  210/  8/ 13 1016.1S
$$


 

View Past Reports for Green Bay, WI.

Products Courtesy of NOAA-NWS
NWS Information Parsing Script by Ken True at Saratoga Weather - Script by SE Lincoln Weather.